Starlink 4002

operational
NORAD ID: 52612 Int'l Des: 2022-052 Owner: SPXS Country: US Constellation: starlink
LEOCIRCULAR

Starlink 4002について

説明を読み込み中...

リアルタイム位置

3D地球を読み込み中...

次回通過

高度履歴

Altitude vs Time

uPlot chart will show altitude changes over time

軌道要素

1 52612U 22052Q 25296.92158097 .00001585 00000-0 11764-3 0 9993
2 52612 53.2147 173.0972 0001244 92.8689 267.2445 15.08844791190212
Epoch: Oct 23, 2025 • Age: 8 hours

現在のステータス

高度 539.8 km
速度 7.60 km/s
衛星直下点 18.18°N, 60.31°E
打ち上げ日 May 14, 2022
運用期間 3.4 years
タイプ internet

技術仕様

分類 Payload
質量 297.00 kg
乾燥質量 275.00 kg
総質量 297.00 kg
長さ 0.20 m
直径 2.80 m
スパン 9.00 m
形状 Box + pan
製造者 SPXS
バスタイプ Starlink
フェーズステータス In Orbit
所有者/国 SPXS/US

大規模コンステレーション

Loading constellations...